Time,TemperatureF,DewpointF,PressureIn,WindDirection,WindDirectionDegrees,WindSpeedMPH,WindSpeedGustMPH,Humidity,HourlyPrecipIn,Conditions,Clouds,dailyrainin,SolarRadiationWatts/m^2,SoftwareType,DateUTC
2014-12-19 00:02:00,38.7,38.5,29.84,SSW,197,5.0,6.0,99,0.02,,,0.09,0.0,meteohub,2014-12-19 08:02:00,
2014-12-19 00:07:00,38.5,38.3,29.84,SW,229,4.0,6.0,99,0.02,,,0.00,0.0,meteohub,2014-12-19 08:07:00,
2014-12-19 00:12:00,38.7,38.5,29.84,South,177,0.0,6.0,99,0.02,,,0.00,0.0,meteohub,2014-12-19 08:12:00,
2014-12-19 00:17:00,38.5,38.3,29.84,South,177,3.0,6.0,99,0.03,,,0.00,0.0,meteohub,2014-12-19 08:17:00,
2014-12-19 00:22:00,38.5,38.3,29.84,SSW,206,5.0,6.0,99,0.03,,,0.01,0.0,meteohub,2014-12-19 08:22:00,
2014-12-19 00:27:00,38.7,38.5,29.84,South,180,4.0,5.0,99,0.03,,,0.01,0.0,meteohub,2014-12-19 08:27:00,
2014-12-19 00:32:00,38.7,38.5,29.84,South,180,0.0,5.0,99,0.03,,,0.01,0.0,meteohub,2014-12-19 08:32:00,
2014-12-19 00:37:00,38.5,38.3,29.83,South,188,3.0,5.0,99,0.04,,,0.02,0.0,meteohub,2014-12-19 08:37:00,
2014-12-19 00:42:00,38.5,38.3,29.83,South,186,3.0,6.0,99,0.03,,,0.02,0.0,meteohub,2014-12-19 08:42:00,
2014-12-19 00:47:00,38.5,38.3,29.84,South,186,4.0,6.0,99,0.03,,,0.02,0.0,meteohub,2014-12-19 08:47:00,
2014-12-19 00:52:00,38.5,38.3,29.83,South,181,5.0,6.0,99,0.03,,,0.02,0.0,meteohub,2014-12-19 08:52:00,
2014-12-19 00:57:00,38.3,38.1,29.84,North,0,6.0,7.0,99,0.02,,,0.02,0.0,meteohub,2014-12-19 08:57:00,
2014-12-19 01:02:00,38.3,38.1,29.83,SSW,199,5.0,7.0,99,0.02,,,0.02,0.0,meteohub,2014-12-19 09:02:00,
2014-12-19 01:07:00,38.1,37.9,29.83,SSW,210,5.0,7.0,99,0.03,,,0.03,0.0,meteohub,2014-12-19 09:07:00,
2014-12-19 01:12:00,38.1,37.9,29.83,SSE,163,2.0,7.0,99,0.03,,,0.03,0.0,meteohub,2014-12-19 09:12:00,
2014-12-19 01:17:00,38.1,37.9,29.83,SSE,162,2.0,7.0,99,0.02,,,0.03,0.0,meteohub,2014-12-19 09:17:00,
2014-12-19 01:22:00,38.1,37.9,29.84,South,188,3.0,7.0,99,0.02,,,0.03,0.0,meteohub,2014-12-19 09:22:00,
2014-12-19 01:27:00,38.1,37.9,29.84,SSW,202,5.0,7.0,99,0.02,,,0.03,0.0,meteohub,2014-12-19 09:27:00,
2014-12-19 01:32:00,37.9,37.8,29.83,South,190,5.0,9.0,99,0.03,,,0.04,0.0,meteohub,2014-12-19 09:32:00,
2014-12-19 01:37:00,37.9,37.8,29.84,SSW,202,5.0,9.0,99,0.02,,,0.04,0.0,meteohub,2014-12-19 09:37:00,
2014-12-19 01:42:00,37.9,37.8,29.84,SSW,201,7.0,9.0,99,0.02,,,0.04,0.0,meteohub,2014-12-19 09:42:00,
2014-12-19 01:47:00,37.9,37.8,29.84,North,0,5.0,10.0,99,0.02,,,0.04,0.0,meteohub,2014-12-19 09:47:00,
2014-12-19 01:52:00,37.9,37.8,29.84,South,186,5.0,10.0,99,0.02,,,0.04,0.0,meteohub,2014-12-19 09:52:00,
2014-12-19 01:57:00,37.9,37.8,29.85,SSW,198,5.0,10.0,99,0.03,,,0.05,0.0,meteohub,2014-12-19 09:57:00,
2014-12-19 02:02:00,37.9,37.8,29.85,SSW,198,4.0,8.0,99,0.02,,,0.05,0.0,meteohub,2014-12-19 10:02:00,
2014-12-19 02:07:00,37.8,37.6,29.84,South,175,4.0,9.0,99,0.02,,,0.05,0.0,meteohub,2014-12-19 10:07:00,
2014-12-19 02:12:00,37.9,37.8,29.85,SW,223,1.0,9.0,99,0.02,,,0.05,0.0,meteohub,2014-12-19 10:12:00,
2014-12-19 02:17:00,37.8,37.6,29.85,North,0,5.0,9.0,99,0.03,,,0.06,0.0,meteohub,2014-12-19 10:17:00,
2014-12-19 02:22:00,37.9,37.8,29.85,South,183,0.0,6.0,99,0.03,,,0.06,0.0,meteohub,2014-12-19 10:22:00,
2014-12-19 02:27:00,37.9,37.8,29.84,SW,225,4.0,6.0,99,0.03,,,0.06,0.0,meteohub,2014-12-19 10:27:00,
2014-12-19 02:32:00,37.8,37.6,29.84,SSW,205,4.0,7.0,99,0.02,,,0.06,0.0,meteohub,2014-12-19 10:32:00,
2014-12-19 02:37:00,37.8,37.6,29.84,South,191,6.0,7.0,99,0.02,,,0.06,0.0,meteohub,2014-12-19 10:37:00,
2014-12-19 02:42:00,37.8,37.6,29.85,SSW,200,5.0,7.0,99,0.03,,,0.07,0.0,meteohub,2014-12-19 10:42:00,
2014-12-19 02:47:00,37.8,37.6,29.84,WSW,242,3.0,7.0,99,0.03,,,0.07,0.0,meteohub,2014-12-19 10:47:00,
2014-12-19 02:52:00,37.8,37.6,29.84,SW,223,5.0,7.0,99,0.02,,,0.07,0.0,meteohub,2014-12-19 10:52:00,
2014-12-19 02:57:00,37.8,37.6,29.84,SSE,161,2.0,7.0,99,0.02,,,0.07,0.0,meteohub,2014-12-19 10:57:00,
2014-12-19 03:02:00,37.8,37.6,29.84,South,189,2.0,8.0,99,0.03,,,0.08,0.0,meteohub,2014-12-19 11:02:00,
2014-12-19 03:07:00,37.8,37.6,29.84,SSW,200,5.0,8.0,99,0.03,,,0.08,0.0,meteohub,2014-12-19 11:07:00,
2014-12-19 03:12:00,37.8,37.6,29.83,SSW,211,5.0,7.0,99,0.03,,,0.08,0.0,meteohub,2014-12-19 11:12:00,
2014-12-19 03:17:00,37.8,37.6,29.83,SSW,192,3.0,8.0,99,0.02,,,0.08,0.0,meteohub,2014-12-19 11:17:00,
2014-12-19 03:22:00,37.8,37.6,29.83,SSW,193,1.0,8.0,99,0.02,,,0.08,0.0,meteohub,2014-12-19 11:22:00,
2014-12-19 03:27:00,37.8,37.6,29.83,SSW,202,5.0,8.0,99,0.02,,,0.08,0.0,meteohub,2014-12-19 11:27:00,
2014-12-19 03:32:00,37.8,37.6,29.83,SW,216,4.0,6.0,99,0.02,,,0.08,0.0,meteohub,2014-12-19 11:32:00,
2014-12-19 03:37:00,37.8,37.6,29.83,SSW,200,4.0,7.0,99,0.02,,,0.08,0.0,meteohub,2014-12-19 11:37:00,
2014-12-19 03:42:00,37.8,37.6,29.83,SSW,205,8.0,8.0,99,0.01,,,0.08,0.0,meteohub,2014-12-19 11:42:00,
2014-12-19 03:47:00,37.8,37.6,29.83,SSW,208,6.0,11.0,99,0.02,,,0.09,0.0,meteohub,2014-12-19 11:47:00,
2014-12-19 03:52:00,37.8,37.6,29.83,SSW,200,4.0,11.0,99,0.02,,,0.09,0.0,meteohub,2014-12-19 11:52:00,
2014-12-19 03:57:00,37.8,37.6,29.83,SSW,200,7.0,11.0,99,0.02,,,0.09,0.0,meteohub,2014-12-19 11:57:00,
2014-12-19 04:02:00,37.8,37.6,29.84,SW,221,2.0,10.0,99,0.02,,,0.10,0.0,meteohub,2014-12-19 12:02:00,
2014-12-19 04:07:00,37.8,37.6,29.83,SSW,205,0.0,10.0,99,0.02,,,0.10,0.0,meteohub,2014-12-19 12:07:00,
2014-12-19 04:12:00,37.8,37.6,29.83,SSW,207,3.0,10.0,99,0.02,,,0.10,0.0,meteohub,2014-12-19 12:12:00,
2014-12-19 04:17:00,37.8,37.6,29.84,SSW,211,3.0,7.0,99,0.03,,,0.11,0.0,meteohub,2014-12-19 12:17:00,
2014-12-19 04:22:00,37.8,37.6,29.83,SSW,208,1.0,5.0,99,0.03,,,0.11,0.0,meteohub,2014-12-19 12:22:00,
2014-12-19 04:27:00,37.8,37.6,29.83,South,178,0.0,5.0,99,0.03,,,0.11,0.0,meteohub,2014-12-19 12:27:00,
2014-12-19 04:32:00,37.8,37.6,29.83,South,178,3.0,5.0,99,0.04,,,0.12,0.0,meteohub,2014-12-19 12:32:00,
2014-12-19 04:37:00,37.8,37.6,29.83,South,179,1.0,5.0,99,0.04,,,0.12,0.0,meteohub,2014-12-19 12:37:00,
2014-12-19 04:42:00,37.8,37.6,29.83,South,180,2.0,4.0,99,0.04,,,0.12,0.0,meteohub,2014-12-19 12:42:00,
2014-12-19 04:47:00,37.8,37.6,29.83,South,180,3.0,4.0,99,0.04,,,0.13,0.0,meteohub,2014-12-19 12:47:00,
2014-12-19 04:52:00,37.6,37.4,29.83,South,190,1.0,4.0,99,0.04,,,0.13,0.0,meteohub,2014-12-19 12:52:00,
2014-12-19 04:57:00,37.6,37.4,29.83,South,182,2.0,5.0,99,0.03,,,0.13,0.0,meteohub,2014-12-19 12:57:00,
2014-12-19 05:02:00,37.6,37.4,29.84,South,191,4.0,5.0,99,0.04,,,0.14,0.0,meteohub,2014-12-19 13:02:00,
2014-12-19 05:07:00,37.6,37.4,29.84,North,0,3.0,6.0,99,0.04,,,0.14,0.0,meteohub,2014-12-19 13:07:00,
2014-12-19 05:12:00,37.6,37.4,29.84,SSW,205,2.0,6.0,99,0.03,,,0.14,0.0,meteohub,2014-12-19 13:12:00,
2014-12-19 05:17:00,37.6,37.4,29.84,South,173,4.0,6.0,99,0.03,,,0.14,0.0,meteohub,2014-12-19 13:17:00,
2014-12-19 05:22:00,37.6,37.4,29.84,SSW,203,4.0,5.0,99,0.03,,,0.14,0.0,meteohub,2014-12-19 13:22:00,
2014-12-19 05:27:00,37.6,37.4,29.84,SSW,206,0.0,5.0,99,0.02,,,0.14,0.0,meteohub,2014-12-19 13:27:00,
2014-12-19 05:32:00,37.6,37.4,29.84,SSW,205,3.0,5.0,99,0.03,,,0.15,0.0,meteohub,2014-12-19 13:32:00,
2014-12-19 05:37:00,37.6,37.4,29.85,SSW,211,5.0,5.0,99,0.03,,,0.15,0.0,meteohub,2014-12-19 13:37:00,
2014-12-19 05:42:00,37.6,37.4,29.85,SSW,213,2.0,5.0,99,0.03,,,0.15,0.0,meteohub,2014-12-19 13:42:00,
2014-12-19 05:47:00,37.6,37.4,29.85,SSW,211,1.0,6.0,99,0.03,,,0.16,0.0,meteohub,2014-12-19 13:47:00,
2014-12-19 05:52:00,37.6,37.4,29.85,South,175,0.0,6.0,99,0.03,,,0.16,0.0,meteohub,2014-12-19 13:52:00,
2014-12-19 05:57:00,37.6,37.4,29.85,South,175,0.0,4.0,99,0.03,,,0.16,0.0,meteohub,2014-12-19 13:57:00,
2014-12-19 06:02:00,37.8,37.6,29.85,South,175,0.0,4.0,99,0.02,,,0.16,0.0,meteohub,2014-12-19 14:02:00,
2014-12-19 06:07:00,37.8,37.6,29.85,South,175,0.0,1.0,99,0.02,,,0.16,0.0,meteohub,2014-12-19 14:07:00,
2014-12-19 06:12:00,37.8,37.6,29.85,South,175,0.0,1.0,99,0.02,,,0.16,0.0,meteohub,2014-12-19 14:12:00,
2014-12-19 06:17:00,37.8,37.6,29.85,South,175,2.0,0.0,99,0.02,,,0.16,0.0,meteohub,2014-12-19 14:17:00,
2014-12-19 06:22:00,37.9,37.8,29.85,South,175,0.0,2.0,99,0.02,,,0.16,0.0,meteohub,2014-12-19 14:22:00,
2014-12-19 06:27:00,37.8,37.6,29.85,South,176,1.0,2.0,99,0.01,,,0.16,0.0,meteohub,2014-12-19 14:27:00,
2014-12-19 06:32:00,37.8,37.6,29.85,South,176,0.0,3.0,99,0.01,,,0.16,0.0,meteohub,2014-12-19 14:32:00,
2014-12-19 06:37:00,37.8,37.6,29.86,South,176,2.0,3.0,99,0.01,,,0.16,0.0,meteohub,2014-12-19 14:37:00,
2014-12-19 06:42:00,37.6,37.4,29.86,South,176,0.0,3.0,99,0.01,,,0.17,0.0,meteohub,2014-12-19 14:42:00,
2014-12-19 06:47:00,37.6,37.4,29.86,South,176,0.0,3.0,99,0.01,,,0.17,0.0,meteohub,2014-12-19 14:47:00,
2014-12-19 06:52:00,37.6,37.4,29.86,South,178,3.0,3.0,99,0.02,,,0.18,0.0,meteohub,2014-12-19 14:52:00,
2014-12-19 06:57:00,37.8,37.6,29.86,SSW,192,3.0,3.0,99,0.02,,,0.18,0.0,meteohub,2014-12-19 14:57:00,
2014-12-19 07:02:00,37.8,37.6,29.86,South,184,2.0,5.0,99,0.02,,,0.18,0.0,meteohub,2014-12-19 15:02:00,
2014-12-19 07:07:00,37.6,37.4,29.86,SSW,192,6.0,6.0,99,0.02,,,0.18,0.0,meteohub,2014-12-19 15:07:00,
2014-12-19 07:12:00,37.6,37.4,29.86,South,191,6.0,7.0,99,0.02,,,0.18,0.0,meteohub,2014-12-19 15:12:00,
2014-12-19 07:17:00,37.6,37.4,29.86,SW,227,6.0,9.0,99,0.02,,,0.18,0.0,meteohub,2014-12-19 15:17:00,
2014-12-19 07:22:00,37.6,37.4,29.86,SSW,194,5.0,9.0,99,0.02,,,0.18,0.0,meteohub,2014-12-19 15:22:00,
2014-12-19 07:27:00,37.6,37.4,29.86,South,189,5.0,9.0,99,0.02,,,0.18,0.0,meteohub,2014-12-19 15:27:00,
2014-12-19 07:32:00,37.8,37.6,29.86,South,179,2.0,9.0,99,0.02,,,0.18,0.0,meteohub,2014-12-19 15:32:00,
2014-12-19 07:37:00,37.8,37.6,29.86,South,188,7.0,9.0,99,0.01,,,0.18,0.0,meteohub,2014-12-19 15:37:00,
2014-12-19 07:42:00,37.9,37.8,29.86,WSW,237,8.0,11.0,99,0.02,,,0.19,0.0,meteohub,2014-12-19 15:42:00,
2014-12-19 07:47:00,37.8,37.6,29.86,South,174,2.0,13.0,99,0.02,,,0.19,0.0,meteohub,2014-12-19 15:47:00,
2014-12-19 07:52:00,37.8,37.6,29.86,South,181,10.0,13.0,99,0.01,,,0.19,0.0,meteohub,2014-12-19 15:52:00,
2014-12-19 07:57:00,37.9,37.8,29.86,SW,231,6.0,11.0,99,0.01,,,0.19,0.0,meteohub,2014-12-19 15:57:00,
2014-12-19 08:02:00,38.1,37.9,29.87,SSE,165,6.0,11.0,99,0.01,,,0.19,0.0,meteohub,2014-12-19 16:02:00,
2014-12-19 08:07:00,38.1,37.9,29.87,SE,126,4.0,11.0,99,0.01,,,0.19,5.0,meteohub,2014-12-19 16:07:00,
2014-12-19 08:12:00,38.3,38.1,29.87,SW,227,5.0,11.0,99,0.01,,,0.19,9.0,meteohub,2014-12-19 16:12:00,
2014-12-19 08:17:00,38.3,38.1,29.87,SSW,213,7.0,12.0,99,0.01,,,0.19,12.0,meteohub,2014-12-19 16:17:00,
2014-12-19 08:22:00,38.3,38.1,29.87,North,0,7.0,12.0,99,0.01,,,0.19,11.0,meteohub,2014-12-19 16:22:00,
2014-12-19 08:27:00,38.7,38.5,29.87,SSW,201,6.0,12.0,99,0.01,,,0.19,11.0,meteohub,2014-12-19 16:27:00,
2014-12-19 08:32:00,38.7,38.5,29.88,South,185,6.0,13.0,99,0.01,,,0.19,11.0,meteohub,2014-12-19 16:32:00,
2014-12-19 08:37:00,38.7,38.5,29.87,SW,215,13.0,13.0,99,0.01,,,0.19,16.0,meteohub,2014-12-19 16:37:00,
2014-12-19 08:42:00,38.8,38.3,29.88,SSW,202,10.0,18.0,98,0.00,,,0.19,19.0,meteohub,2014-12-19 16:42:00,
2014-12-19 08:47:00,39.2,38.5,29.88,SSW,211,10.0,21.0,97,0.00,,,0.19,21.0,meteohub,2014-12-19 16:47:00,
2014-12-19 08:52:00,39.0,38.3,29.88,North,0,23.0,23.0,97,0.00,,,0.19,28.0,meteohub,2014-12-19 16:52:00,
2014-12-19 08:57:00,39.6,38.3,29.88,SSW,211,14.0,25.0,95,0.00,,,0.19,35.0,meteohub,2014-12-19 16:57:00,
2014-12-19 09:02:00,39.6,38.3,29.89,South,191,16.0,25.0,95,0.00,,,0.19,44.0,meteohub,2014-12-19 17:02:00,
2014-12-19 09:07:00,39.4,38.1,29.88,North,351,5.0,25.0,95,0.00,,,0.19,40.0,meteohub,2014-12-19 17:07:00,
2014-12-19 09:12:00,39.4,38.3,29.89,South,186,5.0,21.0,96,0.01,,,0.20,30.0,meteohub,2014-12-19 17:12:00,
2014-12-19 09:17:00,39.0,37.8,29.89,SSW,209,13.0,21.0,95,0.01,,,0.20,18.0,meteohub,2014-12-19 17:17:00,
2014-12-19 09:22:00,39.0,37.8,29.90,North,0,14.0,22.0,95,0.02,,,0.21,19.0,meteohub,2014-12-19 17:22:00,
2014-12-19 09:27:00,38.8,37.6,29.91,SSW,204,17.0,23.0,95,0.02,,,0.21,32.0,meteohub,2014-12-19 17:27:00,
2014-12-19 09:32:00,38.8,37.2,29.91,SSW,196,19.0,23.0,94,0.03,,,0.22,33.0,meteohub,2014-12-19 17:32:00,
2014-12-19 09:37:00,38.7,37.0,29.91,SW,219,17.0,21.0,94,0.03,,,0.22,28.0,meteohub,2014-12-19 17:37:00,
2014-12-19 09:42:00,38.7,37.0,29.91,SW,215,12.0,23.0,94,0.03,,,0.22,32.0,meteohub,2014-12-19 17:42:00,
2014-12-19 09:47:00,38.7,37.0,29.91,SSW,201,17.0,26.0,94,0.03,,,0.22,33.0,meteohub,2014-12-19 17:47:00,
2014-12-19 09:52:00,38.8,37.0,29.91,South,188,13.0,26.0,93,0.03,,,0.22,40.0,meteohub,2014-12-19 17:52:00,
2014-12-19 09:57:00,38.8,37.2,29.91,East,88,3.0,23.0,94,0.03,,,0.22,63.0,meteohub,2014-12-19 17:57:00,
2014-12-19 10:02:00,38.8,37.2,29.91,South,184,7.0,21.0,94,0.03,,,0.22,49.0,meteohub,2014-12-19 18:02:00,
2014-12-19 10:07:00,38.5,37.2,29.91,SSW,204,16.0,21.0,95,0.02,,,0.22,33.0,meteohub,2014-12-19 18:07:00,
2014-12-19 10:12:00,38.7,37.4,29.92,North,0,14.0,20.0,95,0.02,,,0.22,11.0,meteohub,2014-12-19 18:12:00,
2014-12-19 10:17:00,38.8,37.6,29.92,SSE,159,6.0,22.0,95,0.02,,,0.22,9.0,meteohub,2014-12-19 18:17:00,